Regional Weather Roundup
Issued by NWS Upton, NY

Current Version | Previous Version | Graphics & Text | Print | Product List | Glossary Off
Versions: 1 2 3 4 5 6 7 8 9 10 11 12 13 14 15 16 17 18 19 20 21 22 23 24 25 26 27 28 29 30 31 32 33 34 35 36 37 38 39 40 41 42 43 44 45 46 47 48 49 50

000
ASUS41 KOKX 191805
RWROKX

REGIONAL WEATHER ROUNDUP
NATIONAL WEATHER SERVICE NEW YORK NY
200 PM EDT TUE AUG 19 2014

NOTE: "FAIR" INDICATES FEW OR NO CLOUDS BELOW 12,000 FEET WITH NO
SIGNIFICANT WEATHER AND/OR OBSTRUCTIONS TO VISIBILITY.

NYZ071-072-176-178-NJZ106-104-191900-
NEW YORK CITY METRO AREA


CITY           SKY/WX    TMP DP  RH WIND       PRES   REMARKS
CENTRAL PARK   SUNNY     79  57  46 E5        29.92F
LAGUARDIA APRT MOSUNNY   77  61  57 NE10      29.90F
KENNEDY INTL   MOSUNNY   77  63  61 S10       29.92R
NEWARK/LIBERTY PTSUNNY   81  57  43 E7        29.89F
BRNX BOT. GARD   N/A     77  59  53 NE5       29.92F
TETERBORO      MOSUNNY   80  56  43 VRB6      29.89S
$$

NYZ177-179-078>081-191900-
LONG ISLAND NEW YORK

CITY           SKY/WX    TMP DP  RH WIND       PRES   REMARKS
FARMINGDALE    SUNNY     76  63  64 S13       29.91F
ISLIP          MOSUNNY   77  63  61 SE8       29.90F
SHIRLEY        SUNNY     76  60  57 S10       29.92F
WESTHAMPTON    SUNNY     75  59  57 SE10      29.94S
MONTAUK POINT    N/A     76  52  43 VRB3      29.95R
$$

NYZ052-065-067-191900-
HUDSON VALLEY

CITY           SKY/WX    TMP DP  RH WIND       PRES   REMARKS
WHITE PLAINS   MOSUNNY   76  53  44 VRB5      29.91F
NEWBURGH       SUNNY     77  55  47 CALM      29.93F
MONTGOMERY     SUNNY     79  53  40 VRB3      29.91F
POUGHKEEPSIE   SUNNY     77  54  44 CALM      29.90F
ALBANY         MOSUNNY   77  50  38 CALM      29.92F
$$

NJZ001-105-106-008-010-013-015-019>022-104-191900-
NEW JERSEY

CITY           SKY/WX    TMP DP  RH WIND       PRES   REMARKS
NEWARK/LIBERTY PTSUNNY   81  57  43 E7        29.89F
TETERBORO      MOSUNNY   80  56  43 VRB6      29.89S
CALDWELL       MOSUNNY   79  55  43 E3        29.91F
MORRISTOWN     PTSUNNY   82  55  39 CALM      29.91F
SOMERVILLE     MOSUNNY   84  57  39 VRB5      29.88S
LINDEN         FAIR      83  65  53 S8        29.92F
SUSSEX         SUNNY     82  54  37 NE5       29.90F
ANDOVER          N/A     81  56  42 VRB5      29.91F
TRENTON        PTSUNNY   80  57  45 E6        29.89F
MILLVILLE      SUNNY     82  62  50 E7        29.89S
ATLANTIC CITY  SUNNY     80  59  48 SE10      29.90S
WRIGHTSTOWN    MOSUNNY   79  64  61 E5        29.87S
TOMS RIVER     MOSUNNY   79  63  57 S7        29.90F
BELMAR         CLOUDY    75  63  64 E10       29.91S
$$

PAZ047>061-062-071-191900-
EASTERN PENNSYLVANIA

CITY           SKY/WX    TMP DP  RH WIND       PRES   REMARKS
PHILADELPHIA   MOSUNNY   84  63  49 E3        29.89S
ALLENTOWN      MOSUNNY   83  57  41 E3        29.90F
SCRANTON       MOSUNNY   80  59  48 W7        29.90S
$$

CTZ002-004>006-009-010-012-RIZ004-006-007-MAZ004-011-015-191900-
SOUTHERN NEW ENGLAND
 IN CT

CITY           SKY/WX    TMP DP  RH WIND       PRES   REMARKS
BRADLEY INTL   MOSUNNY   77  51  40 SE5       29.91F
HARTFORD       SUNNY     76  50  40 VRB6      29.91F
DANBURY        SUNNY     77  53  43 VRB3      29.93F
WTRBRY/OXFORD  MOSUNNY   75  54  46 CALM      29.95F
BRIDGEPORT     SUNNY     74  56  53 E8        29.92F
MERIDEN        SUNNY     80  50  34 CALM      29.91F
NEW HAVEN      MOSUNNY   78  50  37 S6        29.93F
CHESTER        FAIR      75  54  46 S9        29.93F
GROTON         SUNNY     72  55  55 S12       29.92S
WILLIMANTIC    SUNNY     76  52  43 CALM      29.92F

 IN RI

CITY           SKY/WX    TMP DP  RH WIND       PRES   REMARKS
PROVIDENCE     MOSUNNY   77  51  40 VRB5      29.92F
BLOCK ISLAND   SUNNY     73  52  46 E6        29.94S
WESTERLY       SUNNY     75  50  41 S9        29.93F

 IN MA

CITY           SKY/WX    TMP DP  RH WIND       PRES   REMARKS
BOSTON         MOSUNNY   72  53  51 E10       29.91F
WORCESTER      SUNNY     72  47  40 NW8       29.94F
WESTFIELD      SUNNY     77  53  43 S5        29.91F
PROVINCETOWN   SUNNY     70  57  64 MISG      29.93S
NANTUCKET      SUNNY     70  59  68 SE8       29.93S
$$

ANZ330-335-338-340-345-350-353-355-191900-
COASTAL MARINE OBSERVATIONS


STATION/POSITION TIME  SKY/WX   TEMP    WIND        PRES    VSBY  WAVE
                                AIR SEA DIR/SP/G                  HT/PER
                 (UTC)          (F)     (DEG/KT/KT) (MB)    (MI)  (FT/S)
NY HARB ENTRANCE NOT AVBL
4S FIRE IS       NOT AVBL
23SW MTP         1800            69 69              1013.4          2/ 9
HUDSON CANYON    1800            73 73  120/  8/  8 1012.5          2/ 9
EXECUTION ROCKS  1800            71 73   60/ 10/ 12   N/A
WESTERN LI SOUND 1700            70      70/ 10/ 12   N/A           1/ 3
CENTRAL LI SOUND 1700            69 72   70/  6/  8   N/A           1
EASTERN LI SOUND 1700            69 70  180/  8/  8   N/A
ROBBINS REEF     1800            72     160/ 15/ 16   N/A
$$


>>>>>>>>>>>>>>>>>>>>>>>>>>>> KEY <<<<<<<<<<<<<<<<<<<<<<<<<<<
>                                                          <
>     SKY/WX - SKY CONDITION/PRESENT WEATHER               <
>     TMP    - TEMPERATURE IN FAHRENHEIT                   <
>     DP     - DEWPOINT IN FAHRENHEIT                      <
>     RH     - RELATIVE HUMIDITY IN PERCENT                <
>     WIND   - DIRECTION AND SPEED IN MPH                  <
>     PRES   - MEAN SEA LEVEL PRESSURE IN INCHES OF HG     <
>     WCI    - WIND CHILL INDEX                            <
>     VSB    - VISIBILITY IN MILES                         <
>     HX     - HEAT INDEX                                  <
>     TC     - TEMPERATURE IN CELSIUS                      <
>     VRB    - VARIABLE WIND DIRECTION                     <
>                                                          <
>>>>>>>>>>>>>>>>>>>>>>>>>>>> KEY <<<<<<<<<<<<<<<<<<<<<<<<<<<





USA.gov is the U.S. government's official web portal to all federal, state and local government web resources and services.